This is the latest recevied weather packets stored in our database for station/object DK8RG-15. If no packets are shown the sender has not sent any weather packets the latest 10 day(s).
| Time | Temp. | Humidity | Pressure | Rain* | Wind** | Luminosity | Snow |
|---|---|---|---|---|---|---|---|
| 1787382620 | 13.33° C | 94% | 1001.6 hPa | 2.79 mm | - | 49 W/m² | - |
| 1787382020 | 13.33° C | 94% | 1001.6 hPa | 2.03 mm | - | 42 W/m² | - |
| 1787381420 | 13.33° C | 94% | 1001.6 hPa | 1.52 mm | - | 35 W/m² | - |
| 1787380819 | 13.33° C | 94% | 1001.6 hPa | 1.02 mm | - | 35 W/m² | - |
| 1787380221 | 13.33° C | 94% | 1002 hPa | 0.51 mm | - | 35 W/m² | - |
| 1787379620 | 13.33° C | 94% | 1002 hPa | 0 mm | - | 40 W/m² | - |
| 1787379020 | 13.33° C | 94% | 1002 hPa | 0 mm | - | 40 W/m² | - |
| 1787378421 | 13.33° C | 94% | 1002 hPa | 0 mm | - | 40 W/m² | - |
| 1787377820 | 13.33° C | 94% | 1002 hPa | 0 mm | - | 40 W/m² | - |
| 1787377220 | 13.33° C | 94% | 1002 hPa | 0 mm | - | 40 W/m² | - |
| 1787376622 | 13.33° C | 94% | 1002 hPa | 0 mm | - | 9 W/m² | - |
| 1787376020 | 13.33° C | 94% | 1002 hPa | 0 mm | - | 9 W/m² | - |
| 1787375419 | 13.33° C | 94% | 1002 hPa | 0 mm | - | 10 W/m² | - |
| 1787374821 | 13.33° C | 94% | 1002 hPa | 0.25 mm | - | 8 W/m² | - |
| 1787374219 | 13.33° C | 94% | 1002 hPa | 0.51 mm | - | 7 W/m² | - |
| 1787373620 | 13.33° C | 94% | 1002 hPa | 0.51 mm | - | 6 W/m² | - |
| 1787373021 | 13.33° C | 94% | 1002 hPa | 0.76 mm | - | 2 W/m² | - |
| 1787372420 | 13.33° C | 94% | 1002 hPa | 1.02 mm | - | 1 W/m² | - |
| 1787371820 | 13.33° C | 94% | 1002 hPa | 1.27 mm | - | 0 W/m² | - |
| 1787371220 | 13.33° C | 94% | 1002 hPa | 1.27 mm | - | 0 W/m² | - |
| 1787370620 | 13.33° C | 94% | 1002 hPa | 1.27 mm | - | 0 W/m² | - |
| 1787370020 | 13.33° C | 94% | 1002 hPa | 1.52 mm | - | 0 W/m² | - |
| 1787369421 | 13.33° C | 94% | 1002 hPa | 1.52 mm | - | 0 W/m² | - |
| 1787368819 | 13.33° C | 93% | 1002 hPa | 1.27 mm | - | 0 W/m² | - |
| 1787368219 | 13.89° C | 93% | 1002 hPa | 1.02 mm | - | 0 W/m² | - |
* Rain latest hour (hover to see other rain measurements)
** Current wind speed in m/s (hover to see current wind gust speed)